History Data

Date (GMT+4:00) CPM ACPM uSv/h Latitude Longitude Altitude CO CO2 TVOC HCHO Air Pressure Temperature Humidity Type
2026-08-05 21:07:29 23 17.40 0.115000 41.649648 41.62752893 0 0 0 0 0 0 0 0 STD5.60
2026-08-05 21:02:27 15 18.20 0.075000 41.649648 41.62752893 0 0 0 0 0 0 0 0 STD5.60
2026-08-05 20:57:25 27 18.10 0.135000 41.649648 41.62752893 0 0 0 0 0 0 0 0 STD5.60
2026-08-05 20:52:23 19 15.70 0.095000 41.649648 41.62752893 0 0 0 0 0 0 0 0 STD5.60
2026-08-05 20:47:21 12 15.50 0.060000 41.649648 41.62752893 0 0 0 0 0 0 0 0 STD5.60
2026-08-05 20:42:18 12 16.20 0.060000 41.649648 41.62752893 0 0 0 0 0 0 0 0 STD5.60
2026-08-05 20:37:16 10 16.50 0.050000 41.649648 41.62752893 0 0 0 0 0 0 0 0 STD5.60
2026-08-05 20:32:14 17 18.00 0.085000 41.649648 41.62752893 0 0 0 0 0 0 0 0 STD5.60
2026-08-05 20:27:13 15 18.00 0.075000 41.649648 41.62752893 0 0 0 0 0 0 0 0 STD5.60
2026-08-05 20:22:10 24 19.50 0.120000 41.649648 41.62752893 0 0 0 0 0 0 0 0 STD5.60
2026-08-05 20:17:08 23 19.60 0.115000 41.649648 41.62752893 0 0 0 0 0 0 0 0 STD5.60
2026-08-05 20:12:06 26 19.90 0.130000 41.649648 41.62752893 0 0 0 0 0 0 0 0 STD5.60
2026-08-05 20:07:01 21 18.60 0.105000 41.649648 41.62752893 0 0 0 0 0 0 0 0 STD5.60
2026-08-05 20:01:59 19 17.50 0.095000 41.649648 41.62752893 0 0 0 0 0 0 0 0 STD5.60
2026-08-05 19:56:57 14 20.10 0.070000 41.649648 41.62752893 0 0 0 0 0 0 0 0 STD5.60
2026-08-05 19:51:55 27 18.60 0.135000 41.649648 41.62752893 0 0 0 0 0 0 0 0 STD5.60
2026-08-05 19:46:52 18 17.10 0.090000 41.649648 41.62752893 0 0 0 0 0 0 0 0 STD5.60
2026-08-05 19:41:50 17 17.20 0.085000 41.649648 41.62752893 0 0 0 0 0 0 0 0 STD5.60
2026-08-05 19:36:48 11 17.30 0.055000 41.649648 41.62752893 0 0 0 0 0 0 0 0 STD5.60
2026-08-05 19:31:46 17 18.00 0.085000 41.649648 41.62752893 0 0 0 0 0 0 0 0 STD5.60
2026-08-05 19:26:44 13 20.10 0.065000 41.649648 41.62752893 0 0 0 0 0 0 0 0 STD5.60
2026-08-05 19:21:42 23 21.00 0.115000 41.649648 41.62752893 0 0 0 0 0 0 0 0 STD5.60
2026-08-05 19:16:39 20 17.90 0.100000 41.649648 41.62752893 0 0 0 0 0 0 0 0 STD5.60
2026-08-05 19:11:38 15 15.50 0.075000 41.649648 41.62752893 0 0 0 0 0 0 0 0 STD5.60
2026-08-05 19:06:33 12 15.60 0.060000 41.649648 41.62752893 0 0 0 0 0 0 0 0 STD5.60
2026-08-05 19:01:31 16 19.40 0.080000 41.649648 41.62752893 0 0 0 0 0 0 0 0 STD5.60
2026-08-05 18:56:29 25 19.90 0.125000 41.649648 41.62752893 0 0 0 0 0 0 0 0 STD5.60
2026-08-05 18:51:27 22 17.40 0.110000 41.649648 41.62752893 0 0 0 0 0 0 0 0 STD5.60
2026-08-05 18:46:25 20 19.10 0.100000 41.649648 41.62752893 0 0 0 0 0 0 0 0 STD5.60
2026-08-05 18:41:23 20 19.20 0.100000 41.649648 41.62752893 0 0 0 0 0 0 0 0 STD5.60
2026-08-05 18:36:20 10 16.50 0.050000 41.649648 41.62752893 0 0 0 0 0 0 0 0 STD5.60
2026-08-05 18:31:18 26 17.90 0.130000 41.649648 41.62752893 0 0 0 0 0 0 0 0 STD5.60
2026-08-05 18:26:16 16 17.50 0.080000 41.649648 41.62752893 0 0 0 0 0 0 0 0 STD5.60
2026-08-05 18:21:14 18 17.60 0.090000 41.649648 41.62752893 0 0 0 0 0 0 0 0 STD5.60
2026-08-05 18:16:12 20 18.80 0.100000 41.649648 41.62752893 0 0 0 0 0 0 0 0 STD5.60
2026-08-05 18:11:10 12 19.60 0.060000 41.649648 41.62752893 0 0 0 0 0 0 0 0 STD5.60
2026-08-05 18:06:06 19 20.40 0.095000 41.649648 41.62752893 0 0 0 0 0 0 0 0 STD5.60
2026-08-05 18:01:03 14 18.00 0.070000 41.649648 41.62752893 0 0 0 0 0 0 0 0 STD5.60
2026-08-05 17:56:01 22 19.30 0.110000 41.649648 41.62752893 0 0 0 0 0 0 0 0 STD5.60
2026-08-05 17:50:59 25 20.10 0.125000 41.649648 41.62752893 0 0 0 0 0 0 0 0 STD5.60
2026-08-05 17:45:57 18 17.60 0.090000 41.649648 41.62752893 0 0 0 0 0 0 0 0 STD5.60
2026-08-05 17:40:55 26 17.70 0.130000 41.649648 41.62752893 0 0 0 0 0 0 0 0 STD5.60
2026-08-05 17:35:53 22 18.40 0.110000 41.649648 41.62752893 0 0 0 0 0 0 0 0 STD5.60
2026-08-05 17:30:51 17 19.10 0.085000 41.649648 41.62752893 0 0 0 0 0 0 0 0 STD5.60
2026-08-05 17:25:49 21 20.70 0.105000 41.649648 41.62752893 0 0 0 0 0 0 0 0 STD5.60
2026-08-05 17:20:47 23 19.70 0.115000 41.649648 41.62752893 0 0 0 0 0 0 0 0 STD5.60
2026-08-05 17:15:45 17 18.70 0.085000 41.649648 41.62752893 0 0 0 0 0 0 0 0 STD5.60
2026-08-05 17:10:43 19 19.40 0.095000 41.649648 41.62752893 0 0 0 0 0 0 0 0 STD5.60
2026-08-05 17:05:38 18 18.00 0.090000 41.649648 41.62752893 0 0 0 0 0 0 0 0 STD5.60
2026-08-05 17:00:36 16 15.90 0.080000 41.649648 41.62752893 0 0 0 0 0 0 0 0 STD5.60
2026-08-05 16:55:34 18 17.00 0.090000 41.649648 41.62752893 0 0 0 0 0 0 0 0 STD5.60
2026-08-05 16:50:32 20 19.20 0.100000 41.649648 41.62752893 0 0 0 0 0 0 0 0 STD5.60
2026-08-05 16:45:30 15 17.80 0.075000 41.649648 41.62752893 0 0 0 0 0 0 0 0 STD5.60
2026-08-05 16:40:28 16 15.90 0.080000 41.649648 41.62752893 0 0 0 0 0 0 0 0 STD5.60
2026-08-05 16:35:26 16 16.80 0.080000 41.649648 41.62752893 0 0 0 0 0 0 0 0 STD5.60
2026-08-05 16:30:23 20 17.30 0.100000 41.649648 41.62752893 0 0 0 0 0 0 0 0 STD5.60
2026-08-05 16:25:21 16 16.20 0.080000 41.649648 41.62752893 0 0 0 0 0 0 0 0 STD5.60
2026-08-05 16:20:19 13 14.70 0.065000 41.649648 41.62752893 0 0 0 0 0 0 0 0 STD5.60
2026-08-05 16:15:17 15 16.00 0.075000 41.649648 41.62752893 0 0 0 0 0 0 0 0 STD5.60
2026-08-05 16:10:15 22 17.70 0.110000 41.649648 41.62752893 0 0 0 0 0 0 0 0 STD5.60
2026-08-05 16:05:10 14 18.40 0.070000 41.649648 41.62752893 0 0 0 0 0 0 0 0 STD5.60
2026-08-05 16:00:11 9 17.80 0.045000 41.649648 41.62752893 0 0 0 0 0 0 0 0 STD5.60
2026-08-05 15:55:07 16 17.30 0.080000 41.649648 41.62752893 0 0 0 0 0 0 0 0 STD5.60
2026-08-05 15:50:04 17 17.60 0.085000 41.649648 41.62752893 0 0 0 0 0 0 0 0 STD5.60
2026-08-05 15:45:02 16 17.40 0.080000 41.649648 41.62752893 0 0 0 0 0 0 0 0 STD5.60
2026-08-05 15:40:00 19 17.90 0.095000 41.649648 41.62752893 0 0 0 0 0 0 0 0 STD5.60
2026-08-05 15:34:58 22 18.30 0.110000 41.649648 41.62752893 0 0 0 0 0 0 0 0 STD5.60
2026-08-05 15:29:56 20 17.70 0.100000 41.649648 41.62752893 0 0 0 0 0 0 0 0 STD5.60
2026-08-05 15:24:54 20 18.70 0.100000 41.649648 41.62752893 0 0 0 0 0 0 0 0 STD5.60
2026-08-05 15:19:52 21 19.70 0.105000 41.649648 41.62752893 0 0 0 0 0 0 0 0 STD5.60
2026-08-05 15:14:49 18 19.30 0.090000 41.649648 41.62752893 0 0 0 0 0 0 0 0 STD5.60
2026-08-05 15:09:48 18 18.10 0.090000 41.649648 41.62752893 0 0 0 0 0 0 0 0 STD5.60
2026-08-05 15:04:44 14 17.10 0.070000 41.649648 41.62752893 0 0 0 0 0 0 0 0 STD5.60
2026-08-05 14:59:42 14 17.70 0.070000 41.649648 41.62752893 0 0 0 0 0 0 0 0 STD5.60
2026-08-05 14:54:40 20 18.70 0.100000 41.649648 41.62752893 0 0 0 0 0 0 0 0 STD5.60
2026-08-05 14:49:37 18 18.50 0.090000 41.649648 41.62752893 0 0 0 0 0 0 0 0 STD5.60
2026-08-05 14:44:35 22 20.40 0.110000 41.649648 41.62752893 0 0 0 0 0 0 0 0 STD5.60
2026-08-05 14:39:33 23 17.70 0.115000 41.649648 41.62752893 0 0 0 0 0 0 0 0 STD5.60
2026-08-05 14:34:31 18 15.00 0.090000 41.649648 41.62752893 0 0 0 0 0 0 0 0 STD5.60
2026-08-05 14:29:29 15 16.80 0.075000 41.649648 41.62752893 0 0 0 0 0 0 0 0 STD5.60
2026-08-05 14:24:27 15 17.50 0.075000 41.649648 41.62752893 0 0 0 0 0 0 0 0 STD5.60
2026-08-05 14:19:24 14 16.90 0.070000 41.649648 41.62752893 0 0 0 0 0 0 0 0 STD5.60
2026-08-05 14:14:22 20 16.40 0.100000 41.649648 41.62752893 0 0 0 0 0 0 0 0 STD5.60
2026-08-05 14:09:17 18 16.80 0.090000 41.649648 41.62752893 0 0 0 0 0 0 0 0 STD5.60
2026-08-05 14:04:15 17 16.70 0.085000 41.649648 41.62752893 0 0 0 0 0 0 0 0 STD5.60
2026-08-05 13:59:12 15 19.00 0.075000 41.649648 41.62752893 0 0 0 0 0 0 0 0 STD5.60
2026-08-05 13:54:11 24 19.10 0.120000 41.649648 41.62752893 0 0 0 0 0 0 0 0 STD5.60
2026-08-05 13:49:08 21 17.60 0.105000 41.649648 41.62752893 0 0 0 0 0 0 0 0 STD5.60
2026-08-05 13:44:07 19 18.10 0.095000 41.649648 41.62752893 0 0 0 0 0 0 0 0 STD5.60
2026-08-05 13:39:04 28 17.40 0.140000 41.649648 41.62752893 0 0 0 0 0 0 0 0 STD5.60
2026-08-05 13:34:02 17 18.30 0.085000 41.649648 41.62752893 0 0 0 0 0 0 0 0 STD5.60
2026-08-05 13:29:01 19 18.00 0.095000 41.649648 41.62752893 0 0 0 0 0 0 0 0 STD5.60
2026-08-05 13:23:59 15 16.80 0.075000 41.649648 41.62752893 0 0 0 0 0 0 0 0 STD5.60
2026-08-05 13:18:56 14 15.20 0.070000 41.649648 41.62752893 0 0 0 0 0 0 0 0 STD5.60
2026-08-05 13:13:54 11 17.10 0.055000 41.649648 41.62752893 0 0 0 0 0 0 0 0 STD5.60
2026-08-05 13:08:50 26 18.50 0.130000 41.649648 41.62752893 0 0 0 0 0 0 0 0 STD5.60
2026-08-05 13:03:48 27 16.50 0.135000 41.649648 41.62752893 0 0 0 0 0 0 0 0 STD5.60
2026-08-05 12:58:46 20 17.80 0.100000 41.649648 41.62752893 0 0 0 0 0 0 0 0 STD5.60
2026-08-05 12:53:44 18 18.90 0.090000 41.649648 41.62752893 0 0 0 0 0 0 0 0 STD5.60
2026-08-05 12:48:42 22 18.90 0.110000 41.649648 41.62752893 0 0 0 0 0 0 0 0 STD5.60
2026-08-05 12:43:40 22 19.70 0.110000 41.649648 41.62752893 0 0 0 0 0 0 0 0 STD5.60
2026-08-05 12:38:38 19 18.80 0.095000 41.649648 41.62752893 0 0 0 0 0 0 0 0 STD5.60
2026-08-05 12:33:36 18 17.60 0.090000 41.649648 41.62752893 0 0 0 0 0 0 0 0 STD5.60
2026-08-05 12:28:34 17 16.50 0.085000 41.649648 41.62752893 0 0 0 0 0 0 0 0 STD5.60
2026-08-05 12:23:32 17 17.00 0.085000 41.649648 41.62752893 0 0 0 0 0 0 0 0 STD5.60
2026-08-05 12:18:30 17 17.90 0.085000 41.649648 41.62752893 0 0 0 0 0 0 0 0 STD5.60
2026-08-05 12:13:28 14 8.50 0.070000 41.649648 41.62752893 0 0 0 0 0 0 0 0 STD5.60
2026-08-05 12:08:24 18 18.80 0.090000 41.649648 41.62752893 0 0 0 0 0 0 0 0 STD5.60
2026-08-05 12:03:22 16 19.20 0.080000 41.649648 41.62752893 0 0 0 0 0 0 0 0 STD5.60
2026-08-05 11:58:20 16 18.40 0.080000 41.649648 41.62752893 0 0 0 0 0 0 0 0 STD5.60
2026-08-05 11:53:18 21 18.30 0.105000 41.649648 41.62752893 0 0 0 0 0 0 0 0 STD5.60
2026-08-05 11:48:16 24 17.60 0.120000 41.649648 41.62752893 0 0 0 0 0 0 0 0 STD5.60
2026-08-05 11:43:14 19 16.90 0.095000 41.649648 41.62752893 0 0 0 0 0 0 0 0 STD5.60
2026-08-05 11:38:12 24 18.00 0.120000 41.649648 41.62752893 0 0 0 0 0 0 0 0 STD5.60
2026-08-05 11:33:10 22 17.50 0.110000 41.649648 41.62752893 0 0 0 0 0 0 0 0 STD5.60
2026-08-05 11:28:08 14 16.60 0.070000 41.649648 41.62752893 0 0 0 0 0 0 0 0 STD5.60
2026-08-05 11:23:06 13 16.40 0.065000 41.649648 41.62752893 0 0 0 0 0 0 0 0 STD5.60
2026-08-05 11:18:04 13 14.30 0.065000 41.649648 41.62752893 0 0 0 0 0 0 0 0 STD5.60
2026-08-05 11:13:02 13 16.50 0.065000 41.649648 41.62752893 0 0 0 0 0 0 0 0 STD5.60
2026-08-05 11:07:56 20 21.00 0.100000 41.649648 41.62752893 0 0 0 0 0 0 0 0 STD5.60
2026-08-05 11:02:54 22 18.60 0.110000 41.649648 41.62752893 0 0 0 0 0 0 0 0 STD5.60
2026-08-05 10:57:52 16 17.20 0.080000 41.649648 41.62752893 0 0 0 0 0 0 0 0 STD5.60
2026-08-05 10:52:50 21 19.00 0.105000 41.649648 41.62752893 0 0 0 0 0 0 0 0 STD5.60
2026-08-05 10:47:48 15 18.00 0.075000 41.649648 41.62752893 0 0 0 0 0 0 0 0 STD5.60
2026-08-05 10:42:46 13 17.10 0.065000 41.649648 41.62752893 0 0 0 0 0 0 0 0 STD5.60
2026-08-05 10:37:44 20 17.10 0.100000 41.649648 41.62752893 0 0 0 0 0 0 0 0 STD5.60
2026-08-05 10:32:42 14 16.40 0.070000 41.649648 41.62752893 0 0 0 0 0 0 0 0 STD5.60
2026-08-05 10:27:40 16 16.70 0.080000 41.649648 41.62752893 0 0 0 0 0 0 0 0 STD5.60
2026-08-05 10:22:38 16 18.30 0.080000 41.649648 41.62752893 0 0 0 0 0 0 0 0 STD5.60
2026-08-05 10:17:35 26 19.70 0.130000 41.649648 41.62752893 0 0 0 0 0 0 0 0 STD5.60
2026-08-05 10:12:33 23 19.80 0.115000 41.649648 41.62752893 0 0 0 0 0 0 0 0 STD5.60
2026-08-05 10:07:29 19 21.00 0.095000 41.649648 41.62752893 0 0 0 0 0 0 0 0 STD5.60
2026-08-05 10:02:27 26 19.80 0.130000 41.649648 41.62752893 0 0 0 0 0 0 0 0 STD5.60
2026-08-05 09:57:25 18 16.30 0.090000 41.649648 41.62752893 0 0 0 0 0 0 0 0 STD5.60
2026-08-05 09:52:23 16 16.80 0.080000 41.649648 41.62752893 0 0 0 0 0 0 0 0 STD5.60
2026-08-05 09:47:21 15 18.50 0.075000 41.649648 41.62752893 0 0 0 0 0 0 0 0 STD5.60
2026-08-05 09:42:19 20 17.00 0.100000 41.649648 41.62752893 0 0 0 0 0 0 0 0 STD5.60
2026-08-05 09:37:16 18 15.40 0.090000 41.649648 41.62752893 0 0 0 0 0 0 0 0 STD5.60
2026-08-05 09:32:14 14 17.10 0.070000 41.649648 41.62752893 0 0 0 0 0 0 0 0 STD5.60
2026-08-05 09:27:12 20 19.50 0.100000 41.649648 41.62752893 0 0 0 0 0 0 0 0 STD5.60
2026-08-05 09:22:10 23 20.40 0.115000 41.649648 41.62752893 0 0 0 0 0 0 0 0 STD5.60
2026-08-05 09:17:08 18 18.20 0.090000 41.649648 41.62752893 0 0 0 0 0 0 0 0 STD5.60
2026-08-05 09:12:06 17 17.20 0.085000 41.649648 41.62752893 0 0 0 0 0 0 0 0 STD5.60
2026-08-05 09:07:02 23 17.30 0.115000 41.649648 41.62752893 0 0 0 0 0 0 0 0 STD5.60
2026-08-05 09:02:00 14 15.70 0.070000 41.649648 41.62752893 0 0 0 0 0 0 0 0 STD5.60
2026-08-05 08:56:58 21 17.40 0.105000 41.649648 41.62752893 0 0 0 0 0 0 0 0 STD5.60
2026-08-05 08:51:55 17 20.20 0.085000 41.649648 41.62752893 0 0 0 0 0 0 0 0 STD5.60
2026-08-05 08:46:53 19 20.40 0.095000 41.649648 41.62752893 0 0 0 0 0 0 0 0 STD5.60
2026-08-05 08:41:51 20 18.60 0.100000 41.649648 41.62752893 0 0 0 0 0 0 0 0 STD5.60
2026-08-05 08:36:49 17 17.70 0.085000 41.649648 41.62752893 0 0 0 0 0 0 0 0 STD5.60
2026-08-05 08:31:47 18 16.80 0.090000 41.649648 41.62752893 0 0 0 0 0 0 0 0 STD5.60
2026-08-05 08:26:45 14 16.30 0.070000 41.649648 41.62752893 0 0 0 0 0 0 0 0 STD5.60
2026-08-05 08:21:43 13 18.30 0.065000 41.649648 41.62752893 0 0 0 0 0 0 0 0 STD5.60
2026-08-05 08:16:41 16 19.30 0.080000 41.649648 41.62752893 0 0 0 0 0 0 0 0 STD5.60
2026-08-05 08:11:39 25 17.20 0.125000 41.649648 41.62752893 0 0 0 0 0 0 0 0 STD5.60
2026-08-05 08:06:35 16 15.90 0.080000 41.649648 41.62752893 0 0 0 0 0 0 0 0 STD5.60
2026-08-05 08:01:32 19 17.30 0.095000 41.649648 41.62752893 0 0 0 0 0 0 0 0 STD5.60
2026-08-05 07:56:30 30 19.30 0.150000 41.649648 41.62752893 0 0 0 0 0 0 0 0 STD5.60
2026-08-05 07:51:28 14 17.90 0.070000 41.649648 41.62752893 0 0 0 0 0 0 0 0 STD5.60
2026-08-05 07:46:26 18 16.90 0.090000 41.649648 41.62752893 0 0 0 0 0 0 0 0 STD5.60
2026-08-05 07:41:24 21 18.70 0.105000 41.649648 41.62752893 0 0 0 0 0 0 0 0 STD5.60
2026-08-05 07:36:22 22 18.70 0.110000 41.649648 41.62752893 0 0 0 0 0 0 0 0 STD5.60
2026-08-05 07:31:19 17 18.60 0.085000 41.649648 41.62752893 0 0 0 0 0 0 0 0 STD5.60
2026-08-05 07:26:17 12 21.70 0.060000 41.649648 41.62752893 0 0 0 0 0 0 0 0 STD5.60
2026-08-05 07:21:15 23 20.40 0.115000 41.649648 41.62752893 0 0 0 0 0 0 0 0 STD5.60
2026-08-05 07:16:13 24 17.70 0.120000 41.649648 41.62752893 0 0 0 0 0 0 0 0 STD5.60
2026-08-05 07:11:11 25 22.20 0.125000 41.649648 41.62752893 0 0 0 0 0 0 0 0 STD5.60
2026-08-05 07:06:07 24 20.60 0.120000 41.649648 41.62752893 0 0 0 0 0 0 0 0 STD5.60
2026-08-05 07:01:05 16 17.20 0.080000 41.649648 41.62752893 0 0 0 0 0 0 0 0 STD5.60
2026-08-05 06:56:03 14 17.80 0.070000 41.649648 41.62752893 0 0 0 0 0 0 0 0 STD5.60
2026-08-05 06:51:01 21 17.50 0.105000 41.649648 41.62752893 0 0 0 0 0 0 0 0 STD5.60
2026-08-05 06:45:59 20 19.00 0.100000 41.649648 41.62752893 0 0 0 0 0 0 0 0 STD5.60
2026-08-05 06:40:57 18 18.00 0.090000 41.649648 41.62752893 0 0 0 0 0 0 0 0 STD5.60
2026-08-05 06:35:55 18 16.80 0.090000 41.649648 41.62752893 0 0 0 0 0 0 0 0 STD5.60
2026-08-05 06:30:53 19 16.70 0.095000 41.649648 41.62752893 0 0 0 0 0 0 0 0 STD5.60
2026-08-05 06:25:50 16 20.00 0.080000 41.649648 41.62752893 0 0 0 0 0 0 0 0 STD5.60
2026-08-05 06:20:49 17 21.80 0.085000 41.649648 41.62752893 0 0 0 0 0 0 0 0 STD5.60
2026-08-05 06:15:46 27 17.70 0.135000 41.649648 41.62752893 0 0 0 0 0 0 0 0 STD5.60
2026-08-05 06:10:44 10 15.90 0.050000 41.649648 41.62752893 0 0 0 0 0 0 0 0 STD5.60
2026-08-05 06:05:40 19 17.10 0.095000 41.649648 41.62752893 0 0 0 0 0 0 0 0 STD5.60
2026-08-05 06:00:38 20 16.70 0.100000 41.649648 41.62752893 0 0 0 0 0 0 0 0 STD5.60
2026-08-05 05:55:36 14 16.20 0.070000 41.649648 41.62752893 0 0 0 0 0 0 0 0 STD5.60
2026-08-05 05:50:34 19 18.30 0.095000 41.649648 41.62752893 0 0 0 0 0 0 0 0 STD5.60
2026-08-05 05:45:32 22 19.10 0.110000 41.649648 41.62752893 0 0 0 0 0 0 0 0 STD5.60
2026-08-05 05:40:30 17 20.00 0.085000 41.649648 41.62752893 0 0 0 0 0 0 0 0 STD5.60
2026-08-05 05:35:28 18 22.20 0.090000 41.649648 41.62752893 0 0 0 0 0 0 0 0 STD5.60
2026-08-05 05:30:25 15 20.00 0.075000 41.649648 41.62752893 0 0 0 0 0 0 0 0 STD5.60
2026-08-05 05:25:23 15 19.10 0.075000 41.649648 41.62752893 0 0 0 0 0 0 0 0 STD5.60
2026-08-05 05:20:21 22 20.40 0.110000 41.649648 41.62752893 0 0 0 0 0 0 0 0 STD5.60
2026-08-05 05:15:19 19 18.90 0.095000 41.649648 41.62752893 0 0 0 0 0 0 0 0 STD5.60
2026-08-05 05:10:16 17 17.90 0.085000 41.649648 41.62752893 0 0 0 0 0 0 0 0 STD5.60
2026-08-05 05:05:13 16 20.00 0.080000 41.649648 41.62752893 0 0 0 0 0 0 0 0 STD5.60
2026-08-05 05:00:11 18 19.70 0.090000 41.649648 41.62752893 0 0 0 0 0 0 0 0 STD5.60
2026-08-05 04:55:09 15 16.40 0.075000 41.649648 41.62752893 0 0 0 0 0 0 0 0 STD5.60
2026-08-05 04:50:07 18 17.70 0.090000 41.649648 41.62752893 0 0 0 0 0 0 0 0 STD5.60
2026-08-05 04:45:05 20 19.60 0.100000 41.649648 41.62752893 0 0 0 0 0 0 0 0 STD5.60
2026-08-05 04:40:03 16 17.00 0.080000 41.649648 41.62752893 0 0 0 0 0 0 0 0 STD5.60
2026-08-05 04:35:00 17 16.80 0.085000 41.649648 41.62752893 0 0 0 0 0 0 0 0 STD5.60
2026-08-05 04:29:58 22 20.00 0.110000 41.649648 41.62752893 0 0 0 0 0 0 0 0 STD5.60
2026-08-05 04:24:56 19 18.90 0.095000 41.649648 41.62752893 0 0 0 0 0 0 0 0 STD5.60
2026-08-05 04:19:54 16 16.70 0.080000 41.649648 41.62752893 0 0 0 0 0 0 0 0 STD5.60
2026-08-05 04:14:57 14 16.90 0.070000 41.649648 41.62752893 0 0 0 0 0 0 0 0 STD5.60
2026-08-05 04:09:51 18 17.10 0.090000 41.649648 41.62752893 0 0 0 0 0 0 0 0 STD5.60
2026-08-05 04:04:46 16 18.10 0.080000 41.649648 41.62752893 0 0 0 0 0 0 0 0 STD5.60
2026-08-05 03:59:44 21 18.80 0.105000 41.649648 41.62752893 0 0 0 0 0 0 0 0 STD5.60
2026-08-05 03:54:42 17 17.70 0.085000 41.649648 41.62752893 0 0 0 0 0 0 0 0 STD5.60
2026-08-05 03:49:40 12 17.30 0.060000 41.649648 41.62752893 0 0 0 0 0 0 0 0 STD5.60
2026-08-05 03:44:38 16 17.30 0.080000 41.649648 41.62752893 0 0 0 0 0 0 0 0 STD5.60
2026-08-05 03:39:36 18 18.60 0.090000 41.649648 41.62752893 0 0 0 0 0 0 0 0 STD5.60
2026-08-05 03:34:37 15 19.20 0.075000 41.649648 41.62752893 0 0 0 0 0 0 0 0 STD5.60
2026-08-05 03:29:32 19 17.70 0.095000 41.649648 41.62752893 0 0 0 0 0 0 0 0 STD5.60
2026-08-05 03:24:30 15 17.10 0.075000 41.649648 41.62752893 0 0 0 0 0 0 0 0 STD5.60
2026-08-05 03:19:28 21 17.70 0.105000 41.649648 41.62752893 0 0 0 0 0 0 0 0 STD5.60
2026-08-05 03:14:26 14 17.10 0.070000 41.649648 41.62752893 0 0 0 0 0 0 0 0 STD5.60
2026-08-05 03:09:24 13 18.00 0.065000 41.649648 41.62752893 0 0 0 0 0 0 0 0 STD5.60
2026-08-05 03:04:19 22 20.60 0.110000 41.649648 41.62752893 0 0 0 0 0 0 0 0 STD5.60
2026-08-05 02:59:17 14 18.90 0.070000 41.649648 41.62752893 0 0 0 0 0 0 0 0 STD5.60
2026-08-05 02:54:14 20 17.90 0.100000 41.649648 41.62752893 0 0 0 0 0 0 0 0 STD5.60
2026-08-05 02:49:12 14 19.90 0.070000 41.649648 41.62752893 0 0 0 0 0 0 0 0 STD5.60
2026-08-05 02:44:10 18 19.90 0.090000 41.649648 41.62752893 0 0 0 0 0 0 0 0 STD5.60
2026-08-05 02:39:08 23 19.40 0.115000 41.649648 41.62752893 0 0 0 0 0 0 0 0 STD5.60
2026-08-05 02:34:06 23 16.50 0.115000 41.649648 41.62752893 0 0 0 0 0 0 0 0 STD5.60
2026-08-05 02:29:04 12 16.10 0.060000 41.649648 41.62752893 0 0 0 0 0 0 0 0 STD5.60
2026-08-05 02:24:02 19 17.60 0.095000 41.649648 41.62752893 0 0 0 0 0 0 0 0 STD5.60
2026-08-05 02:19:00 18 16.90 0.090000 41.649648 41.62752893 0 0 0 0 0 0 0 0 STD5.60
2026-08-05 02:13:58 16 16.80 0.080000 41.649648 41.62752893 0 0 0 0 0 0 0 0 STD5.60
2026-08-05 02:08:56 19 17.20 0.095000 41.649648 41.62752893 0 0 0 0 0 0 0 0 STD5.60
2026-08-05 02:03:52 14 19.60 0.070000 41.649648 41.62752893 0 0 0 0 0 0 0 0 STD5.60
2026-08-05 01:58:50 20 18.60 0.100000 41.649648 41.62752893 0 0 0 0 0 0 0 0 STD5.60
2026-08-05 01:53:48 14 16.70 0.070000 41.649648 41.62752893 0 0 0 0 0 0 0 0 STD5.60
2026-08-05 01:48:46 11 17.60 0.055000 41.649648 41.62752893 0 0 0 0 0 0 0 0 STD5.60
2026-08-05 01:43:44 19 18.20 0.095000 41.649648 41.62752893 0 0 0 0 0 0 0 0 STD5.60
2026-08-05 01:38:42 17 18.10 0.085000 41.649648 41.62752893 0 0 0 0 0 0 0 0 STD5.60
2026-08-05 01:33:40 25 16.90 0.125000 41.649648 41.62752893 0 0 0 0 0 0 0 0 STD5.60
2026-08-05 01:28:38 11 17.40 0.055000 41.649648 41.62752893 0 0 0 0 0 0 0 0 STD5.60
2026-08-05 01:23:36 17 19.90 0.085000 41.649648 41.62752893 0 0 0 0 0 0 0 0 STD5.60
2026-08-05 01:18:34 23 19.80 0.115000 41.649648 41.62752893 0 0 0 0 0 0 0 0 STD5.60
2026-08-05 01:13:31 17 17.60 0.085000 41.649648 41.62752893 0 0 0 0 0 0 0 0 STD5.60
2026-08-05 01:08:29 14 16.60 0.070000 41.649648 41.62752893 0 0 0 0 0 0 0 0 STD5.60
2026-08-05 01:03:25 16 18.20 0.080000 41.649648 41.62752893 0 0 0 0 0 0 0 0 STD5.60
2026-08-05 00:58:23 24 20.20 0.120000 41.649648 41.62752893 0 0 0 0 0 0 0 0 STD5.60
2026-08-05 00:53:21 22 19.30 0.110000 41.649648 41.62752893 0 0 0 0 0 0 0 0 STD5.60
2026-08-05 00:48:19 21 17.50 0.105000 41.649648 41.62752893 0 0 0 0 0 0 0 0 STD5.60
2026-08-05 00:43:17 20 17.50 0.100000 41.649648 41.62752893 0 0 0 0 0 0 0 0 STD5.60
2026-08-05 00:38:15 17 18.80 0.085000 41.649648 41.62752893 0 0 0 0 0 0 0 0 STD5.60
2026-08-05 00:33:12 26 19.50 0.130000 41.649648 41.62752893 0 0 0 0 0 0 0 0 STD5.60
2026-08-05 00:28:10 18 18.20 0.090000 41.649648 41.62752893 0 0 0 0 0 0 0 0 STD5.60
2026-08-05 00:23:08 18 17.70 0.090000 41.649648 41.62752893 0 0 0 0 0 0 0 0 STD5.60
2026-08-05 00:18:06 22 17.00 0.110000 41.649648 41.62752893 0 0 0 0 0 0 0 0 STD5.60
2026-08-05 00:13:04 21 18.80 0.105000 41.649648 41.62752893 0 0 0 0 0 0 0 0 STD5.60
2026-08-05 00:08:02 21 20.30 0.105000 41.649648 41.62752893 0 0 0 0 0 0 0 0 STD5.60
2026-08-05 00:02:57 21 19.20 0.105000 41.649648 41.62752893 0 0 0 0 0 0 0 0 STD5.60
2026-08-04 23:57:55 21 18.50 0.105000 41.649648 41.62752893 0 0 0 0 0 0 0 0 STD5.60
2026-08-04 23:52:53 19 17.10 0.095000 41.649648 41.62752893 0 0 0 0 0 0 0 0 STD5.60
2026-08-04 23:47:51 23 17.20 0.115000 41.649648 41.62752893 0 0 0 0 0 0 0 0 STD5.60
2026-08-04 23:42:48 17 17.90 0.085000 41.649648 41.62752893 0 0 0 0 0 0 0 0 STD5.60
2026-08-04 23:37:46 14 16.60 0.070000 41.649648 41.62752893 0 0 0 0 0 0 0 0 STD5.60
2026-08-04 23:32:44 19 16.40 0.095000 41.649648 41.62752893 0 0 0 0 0 0 0 0 STD5.60
2026-08-04 23:27:42 15 18.60 0.075000 41.649648 41.62752893 0 0 0 0 0 0 0 0 STD5.60
2026-08-04 23:22:40 22 18.90 0.110000 41.649648 41.62752893 0 0 0 0 0 0 0 0 STD5.60
2026-08-04 23:17:38 11 17.50 0.055000 41.649648 41.62752893 0 0 0 0 0 0 0 0 STD5.60
2026-08-04 23:12:36 15 17.00 0.075000 41.649648 41.62752893 0 0 0 0 0 0 0 0 STD5.60
2026-08-04 23:07:33 16 15.60 0.080000 41.649648 41.62752893 0 0 0 0 0 0 0 0 STD5.60
2026-08-04 23:02:29 14 16.20 0.070000 41.649648 41.62752893 0 0 0 0 0 0 0 0 STD5.60
2026-08-04 22:57:27 21 19.20 0.105000 41.649648 41.62752893 0 0 0 0 0 0 0 0 STD5.60
2026-08-04 22:52:25 25 18.60 0.125000 41.649648 41.62752893 0 0 0 0 0 0 0 0 STD5.60
2026-08-04 22:47:23 13 16.60 0.065000 41.649648 41.62752893 0 0 0 0 0 0 0 0 STD5.60
2026-08-04 22:42:21 16 18.80 0.080000 41.649648 41.62752893 0 0 0 0 0 0 0 0 STD5.60
2026-08-04 22:37:19 25 19.00 0.125000 41.649648 41.62752893 0 0 0 0 0 0 0 0 STD5.60
2026-08-04 22:32:17 15 17.70 0.075000 41.649648 41.62752893 0 0 0 0 0 0 0 0 STD5.60
2026-08-04 22:27:14 16 17.30 0.080000 41.649648 41.62752893 0 0 0 0 0 0 0 0 STD5.60
2026-08-04 22:22:12 13 17.80 0.065000 41.649648 41.62752893 0 0 0 0 0 0 0 0 STD5.60
2026-08-04 22:17:11 25 18.80 0.125000 41.649648 41.62752893 0 0 0 0 0 0 0 0 STD5.60
2026-08-04 22:12:08 17 16.20 0.085000 41.649648 41.62752893 0 0 0 0 0 0 0 0 STD5.60
2026-08-04 22:07:06 13 17.00 0.065000 41.649648 41.62752893 0 0 0 0 0 0 0 0 STD5.60
2026-08-04 22:02:02 19 18.00 0.095000 41.649648 41.62752893 0 0 0 0 0 0 0 0 STD5.60
2026-08-04 21:57:00 14 14.70 0.070000 41.649648 41.62752893 0 0 0 0 0 0 0 0 STD5.60
2026-08-04 21:51:58 19 14.70 0.095000 41.649648 41.62752893 0 0 0 0 0 0 0 0 STD5.60
2026-08-04 21:46:56 8 17.30 0.040000 41.649648 41.62752893 0 0 0 0 0 0 0 0 STD5.60
2026-08-04 21:41:54 12 17.70 0.060000 41.649648 41.62752893 0 0 0 0 0 0 0 0 STD5.60
2026-08-04 21:36:52 17 17.30 0.085000 41.649648 41.62752893 0 0 0 0 0 0 0 0 STD5.60
2026-08-04 21:31:49 15 18.70 0.075000 41.649648 41.62752893 0 0 0 0 0 0 0 0 STD5.60
2026-08-04 21:26:47 12 17.10 0.060000 41.649648 41.62752893 0 0 0 0 0 0 0 0 STD5.60
2026-08-04 21:21:45 15 17.40 0.075000 41.649648 41.62752893 0 0 0 0 0 0 0 0 STD5.60
2026-08-04 21:16:43 24 16.70 0.120000 41.649648 41.62752893 0 0 0 0 0 0 0 0 STD5.60
2026-08-04 21:11:41 12 14.50 0.060000 41.649648 41.62752893 0 0 0 0 0 0 0 0 STD5.60
2026-08-04 21:06:39 15 17.80 0.075000 41.649648 41.62752893 0 0 0 0 0 0 0 0 STD5.60
2026-08-04 21:01:33 15 19.10 0.075000 41.649648 41.62752893 0 0 0 0 0 0 0 0 STD5.60
2026-08-04 20:56:31 19 18.30 0.095000 41.649648 41.62752893 0 0 0 0 0 0 0 0 STD5.60
2026-08-04 20:51:29 20 19.00 0.100000 41.649648 41.62752893 0 0 0 0 0 0 0 0 STD5.60
2026-08-04 20:46:27 15 17.60 0.075000 41.649648 41.62752893 0 0 0 0 0 0 0 0 STD5.60
2026-08-04 20:41:25 14 18.70 0.070000 41.649648 41.62752893 0 0 0 0 0 0 0 0 STD5.60
2026-08-04 20:36:23 13 18.50 0.065000 41.649648 41.62752893 0 0 0 0 0 0 0 0 STD5.60
2026-08-04 20:31:21 13 17.00 0.065000 41.649648 41.62752893 0 0 0 0 0 0 0 0 STD5.60
2026-08-04 20:26:19 19 14.80 0.095000 41.649648 41.62752893 0 0 0 0 0 0 0 0 STD5.60
2026-08-04 20:21:16 8 15.90 0.040000 41.649648 41.62752893 0 0 0 0 0 0 0 0 STD5.60
2026-08-04 20:16:15 16 16.70 0.080000 41.649648 41.62752893 0 0 0 0 0 0 0 0 STD5.60
2026-08-04 20:11:12 10 15.50 0.050000 41.649648 41.62752893 0 0 0 0 0 0 0 0 STD5.60
2026-08-04 20:06:11 24 18.60 0.120000 41.649648 41.62752893 0 0 0 0 0 0 0 0 STD5.60
2026-08-04 20:01:06 14 18.20 0.070000 41.649648 41.62752893 0 0 0 0 0 0 0 0 STD5.60
Geiger Counter World Map       A real time radiation map.     Copyright 2015 All rights reserved.